Location: Newark
(52.3500°N, 175.9667°E)
Time: 00:22:42
(UTC+00:00)

Vanguard 1 - Pass Details

Date: 24 April 2021
Orbit: 649 x 3834 km, 34.2° (Epoch: 04 May)

Event Time Altitude Azimuth Distance (km) Brightness Sun altitude
Rises 00:02:46 0° 200° (SSW) 4,907 14.2 50.5°
Reaches altitude 10° 00:06:27 10° 186° (S) 4,360 14.2 50.5°
Maximum altitude 00:15:41 24° 139° (SE) 4,304 14.2 50.5°
Drops below altitude 10° 00:28:49 10° 96° (E) 6,396 14.3 50.4°
Sets 00:35:58 0° 86° (E) 7,772 14.6 50.3°
